カタログに戻る

STARLINK-37270

運用中通信VLEO
NORAD 68727·PAYLOAD·🇺🇸 United States

打ち上げ Apr 14, 2026 から Cape Canaveral Space Force Station

Loading…

次のパス (今後24時間)

TLE

最新Source: CelesTrak SupGP

元期: Sep 14, 2026, 22:51 UTC

1 68727C 26081AE  26257.95256944  .00017539  00000+0  51804-3 0  2575
2 68727  53.1576 231.3545 0001462 100.1375 166.4682 15.34390886    13

AllMySatでSTARLINK-37270をリアルタイム追跡

Download on the App Store